Dauntless Aviation
Airports Europe Germany
EDSW

Altdorf-Wallburg

Altdorf-Wallburg, GERMANY

Airport Info
Suggest Updated Information for this Airport

Location

Latitude / Longitude: 48°16'11"N / 7°50'31"E
  48°16.188'N / 7°50.532'E
  48.2698 / 7.8422
Satellite photo at:
Airport distance calculator
From:
Weather Reports

METAR

LFST
18.2nm NW
LFST 240200Z AUTO 02006KT 360V070 9999 SCT045 SCT054 16/11 Q1023 NOSIG
LFGA
22.2nm SW
LFGA 240200Z AUTO 29005KT 9999 OVC056 16/11 Q1023

TAF

LFST
18.2nm NW
TAF LFST 232300Z 2400/2424 32005KT CAVOK
EDSB
32.3nm N
TAF EDSB 231700Z 2318/2418 26005KT CAVOK BECMG 2322/2324 VRB03KT BECMG 2408/2410 35006KT
Safelog

 

Dauntless Aviation

© 2007-2017 Dauntless Aviation, all rights reserved
Information provided via PilotNav comes from a variety of official and unofficial data sources. As errors are possible, do not use PilotNav for primary flight planning purposes. Verify any information that you receive via PilotNav with current and canonical charts and other official documents. The material in this database is subject to database copyrights held by Dauntless Aviation and may not be copied without the express permission of Dauntless Aviation - licenses for use of part of all of this data are available for purchase; enquire via the Dauntless Aviation helpdesk. A number of mechanisms and markers exist in the database to protect against and identify infringement / copyright. Automated queries against this website are stictly prohibited, and all activity is logged and analyzed.